When you browse on this site, cookies collect data to enhance your experience and personalize the content and advertising you see.
Visit our Privacy Policy to learn more. By continuing to use the site, you agree to this use of cookies and data.
  • In France
  • List of Countries
  • For 7 days
  • Water Temperature
  • Satellite Maps
  • Weather Map
  • Weather Widgets
  • user-avatar
    Login

    Hourly Weather Mingachevir

    Today, 17 December, Monday

    Time Temperature Precipitation Wind Pressure Humidity
    00:00 +5°C° 0 mm 3 mps 761 mmHg 80%
    01:00 +5°C° 0 mm 3 mps 761 mmHg 81%
    02:00 +6°C° 0 mm 2 mps 761 mmHg 81%
    03:00 +6°C° 0 mm 2 mps 761 mmHg 81%
    04:00 +6°C° 0 mm 2 mps 760 mmHg 82%
    05:00 +6°C° 0 mm 1 mps 760 mmHg 83%
    06:00 +6°C° 0 mm 1 mps 760 mmHg 83%
    07:00 +7°C° 0 mm 1 mps 760 mmHg 82%
    08:00 +7°C° 0 mm 1 mps 760 mmHg 80%
    09:00 +7°C° 0 mm 1 mps 760 mmHg 78%
    10:00 +7°C° 0 mm 2 mps 759 mmHg 77%
    11:00 +7°C° 0 mm 2 mps 759 mmHg 75%
    12:00 +8°C° 0 mm 2 mps 759 mmHg 73%
    13:00 +8°C° 0 mm 2 mps 758 mmHg 74%
    14:00 +8°C° 0 mm 2 mps 758 mmHg 74%
    15:00 +8°C° 0 mm 2 mps 758 mmHg 75%
    16:00 +7°C° 0 mm 2 mps 758 mmHg 78%
    17:00 +7°C° 0 mm 2 mps 758 mmHg 80%
    18:00 +7°C° 0 mm 2 mps 759 mmHg 83%
    19:00 +6°C° 0.1 mm 2 mps 758 mmHg 84%
    20:00 +6°C° 0.1 mm 2 mps 758 mmHg 85%
    21:00 +6°C° 0.1 mm 2 mps 758 mmHg 87%
    22:00 +6°C° 0.6 mm 2 mps 758 mmHg 88%
    23:00 +7°C° 0.6 mm 1 mps 758 mmHg 89%

    Tomorrow, 18 December, Tuesday

    Time Temperature Precipitation Wind Pressure Humidity
    00:00 +7°C° 0.6 mm 1 mps 758 mmHg 89%
    01:00 +7°C° 0.5 mm 1 mps 758 mmHg 90%
    02:00 +7°C° 0.5 mm 1 mps 758 mmHg 90%
    03:00 +7°C° 0.5 mm 1 mps 758 mmHg 90%
    04:00 +7°C° 0.2 mm 1 mps 758 mmHg 90%
    05:00 +7°C° 0.2 mm 1 mps 758 mmHg 90%
    06:00 +7°C° 0.2 mm 1 mps 758 mmHg 89%
    07:00 +7°C° 0.2 mm 1 mps 758 mmHg 89%
    08:00 +7°C° 0.2 mm 1 mps 758 mmHg 88%
    09:00 +7°C° 0.2 mm 1 mps 758 mmHg 88%
    10:00 +8°C° 0.2 mm 1 mps 758 mmHg 86%
    11:00 +8°C° 0.2 mm 1 mps 758 mmHg 85%
    12:00 +8°C° 0.2 mm 1 mps 758 mmHg 84%
    13:00 +8°C° 0.1 mm 1 mps 758 mmHg 83%
    14:00 +8°C° 0.1 mm 1 mps 758 mmHg 83%
    15:00 +8°C° 0.1 mm 1 mps 758 mmHg 83%
    16:00 +8°C° 0 mm 1 mps 758 mmHg 85%
    17:00 +8°C° 0 mm 1 mps 759 mmHg 88%
    18:00 +7°C° 0 mm 1 mps 759 mmHg 90%
    19:00 +7°C° 0 mm 1 mps 760 mmHg 91%
    20:00 +7°C° 0 mm 1 mps 760 mmHg 92%
    21:00 +7°C° 0 mm 1 mps 760 mmHg 93%
    22:00 +7°C° 0 mm 1 mps 760 mmHg 93%
    23:00 +7°C° 0 mm 1 mps 760 mmHg 93%

    Day after tomorrow, 19 December, Wednesday

    Time Temperature Precipitation Wind Pressure Humidity
    00:00 +6°C° 0 mm 1 mps 760 mmHg 93%
    01:00 +6°C° 0 mm 1 mps 760 mmHg 93%
    02:00 +6°C° 0 mm 1 mps 760 mmHg 92%
    03:00 +5°C° 0 mm 0 mps 761 mmHg 92%
    04:00 +5°C° 0 mm 0 mps 761 mmHg 92%
    05:00 +5°C° 0 mm 0 mps 760 mmHg 91%
    06:00 +5°C° 0 mm 0 mps 760 mmHg 91%
    07:00 +6°C° 0 mm 0 mps 761 mmHg 89%
    08:00 +6°C° 0 mm 0 mps 761 mmHg 87%
    09:00 +8°C° 0 mm 1 mps 761 mmHg 84%
    10:00 +8°C° 0 mm 1 mps 760 mmHg 81%
    11:00 +9°C° 0 mm 1 mps 760 mmHg 79%
    12:00 +8°C° 0 mm 2 mps 760 mmHg 76%
    13:00 +9°C° 0 mm 1 mps 759 mmHg 75%
    14:00 +10°C° 0 mm 1 mps 759 mmHg 75%
    15:00 +10°C° 0 mm 1 mps 759 mmHg 75%
    16:00 +9°C° 0 mm 1 mps 759 mmHg 78%
    17:00 +8°C° 0 mm 1 mps 759 mmHg 81%
    18:00 +8°C° 0 mm 1 mps 759 mmHg 84%
    19:00 +8°C° 0 mm 1 mps 759 mmHg 85%
    20:00 +7°C° 0 mm 1 mps 759 mmHg 87%
    21:00 +7°C° 0 mm 1 mps 759 mmHg 88%
    22:00 +7°C° 0 mm 1 mps 759 mmHg 89%
    23:00 +7°C° 0 mm 1 mps 759 mmHg 90%

    20 December, Thursday

    Time Temperature Precipitation Wind Pressure Humidity
    00:00 +6°C° 0 mm 1 mps 759 mmHg 90%
    01:00 +6°C° 0 mm 1 mps 758 mmHg 90%
    02:00 +6°C° 0 mm 1 mps 758 mmHg 89%
    03:00 +6°C° 0 mm 1 mps 758 mmHg 89%
    04:00 +6°C° 0 mm 1 mps 758 mmHg 88%
    05:00 +5°C° 0 mm 2 mps 757 mmHg 88%
    06:00 +5°C° 0 mm 2 mps 757 mmHg 88%
    07:00 +6°C° 0 mm 2 mps 757 mmHg 85%
    08:00 +6°C° 0 mm 2 mps 757 mmHg 83%
    09:00 +7°C° 0 mm 2 mps 757 mmHg 80%
    10:00 +7°C° 0 mm 2 mps 756 mmHg 76%
    11:00 +8°C° 0 mm 2 mps 756 mmHg 71%
    12:00 +9°C° 0 mm 2 mps 756 mmHg 67%
    13:00 +9°C° 0 mm 2 mps 755 mmHg 66%
    14:00 +9°C° 0 mm 2 mps 755 mmHg 65%
    15:00 +9°C° 0 mm 2 mps 755 mmHg 65%
    16:00 +9°C° 0 mm 2 mps 755 mmHg 67%
    17:00 +9°C° 0 mm 1 mps 755 mmHg 69%
    18:00 +8°C° 0 mm 1 mps 756 mmHg 72%
    19:00 +8°C° 0 mm 1 mps 756 mmHg 71%
    20:00 +8°C° 0 mm 1 mps 756 mmHg 71%
    21:00 +8°C° 0 mm 1 mps 756 mmHg 71%
    22:00 +8°C° 0 mm 1 mps 756 mmHg 71%
    23:00 +8°C° 0 mm 1 mps 756 mmHg 70%

    21 December, Friday

    Time Temperature Precipitation Wind Pressure Humidity
    00:00 +8°C° 0 mm 1 mps 756 mmHg 70%
    01:00 +8°C° 0 mm 1 mps 756 mmHg 70%
    02:00 +7°C° 0 mm 1 mps 756 mmHg 70%
    03:00 +7°C° 0 mm 1 mps 757 mmHg 71%
    04:00 +7°C° 0 mm 1 mps 757 mmHg 71%
    05:00 +7°C° 0 mm 1 mps 757 mmHg 71%
    06:00 +7°C° 0 mm 1 mps 757 mmHg 72%
    07:00 +8°C° 0 mm 1 mps 757 mmHg 69%
    08:00 +8°C° 0 mm 0 mps 757 mmHg 66%
    09:00 +8°C° 0 mm 0 mps 758 mmHg 64%
    10:00 +10°C° 0 mm 1 mps 757 mmHg 61%
    11:00 +11°C° 0 mm 1 mps 757 mmHg 58%
    12:00 +12°C° 0 mm 1 mps 757 mmHg 55%
    13:00 +12°C° 0 mm 1 mps 757 mmHg 55%
    14:00 +12°C° 0 mm 1 mps 757 mmHg 55%
    15:00 +12°C° 0 mm 1 mps 757 mmHg 56%
    16:00 +11°C° 0 mm 1 mps 757 mmHg 60%
    17:00 +10°C° 0 mm 1 mps 757 mmHg 64%
    18:00 +10°C° 0 mm 1 mps 758 mmHg 69%
    19:00 +9°C° 0 mm 1 mps 758 mmHg 70%
    20:00 +9°C° 0 mm 1 mps 758 mmHg 72%
    21:00 +9°C° 0 mm 1 mps 758 mmHg 74%
    22:00 +8°C° 0 mm 1 mps 758 mmHg 77%
    23:00 +8°C° 0 mm 1 mps 758 mmHg 80%

    22 December, Saturday

    Time Temperature Precipitation Wind Pressure Humidity
    00:00 +7°C° 0 mm 1 mps 758 mmHg 83%
    01:00 +7°C° 0 mm 1 mps 758 mmHg 85%
    02:00 +7°C° 0 mm 1 mps 757 mmHg 87%
    03:00 +6°C° 0 mm 0 mps 757 mmHg 89%
    04:00 +6°C° 0 mm 0 mps 757 mmHg 89%
    05:00 +6°C° 0 mm 0 mps 757 mmHg 89%
    06:00 +5°C° 0 mm 0 mps 757 mmHg 90%
    07:00 +6°C° 0 mm 0 mps 757 mmHg 87%
    08:00 +7°C° 0 mm 0 mps 757 mmHg 83%
    09:00 +7°C° 0 mm 0 mps 757 mmHg 80%
    10:00 +8°C° 0 mm 0 mps 756 mmHg 77%
    11:00 +9°C° 0 mm 1 mps 756 mmHg 74%
    12:00 +10°C° 0 mm 1 mps 755 mmHg 71%
    13:00 +10°C° 0 mm 1 mps 755 mmHg 71%
    14:00 +10°C° 0 mm 1 mps 754 mmHg 70%
    15:00 +10°C° 0 mm 1 mps 754 mmHg 70%
    16:00 +10°C° 0 mm 1 mps 754 mmHg 73%
    17:00 +9°C° 0 mm 1 mps 754 mmHg 77%
    18:00 +7°C° 0 mm 0 mps 754 mmHg 81%
    19:00 +7°C° 0 mm 0 mps 754 mmHg 82%
    20:00 +7°C° 0 mm 0 mps 754 mmHg 82%
    21:00 +7°C° 0 mm 0 mps 753 mmHg 83%
    22:00 +7°C° 0 mm 1 mps 753 mmHg 82%
    23:00 +7°C° 0 mm 1 mps 753 mmHg 81%
    Show more